Regional Weather Roundup
Issued by NWS

Home | Current Version | Previous Version | Graphics & Text | Print | Product List | Glossary On
Versions: 1 2 3 4 5 6 7 8 9 10 11 12 13 14 15 16 17 18 19 20 21 22 23 24 25 26 27 28
000
ASUS45 KSLC 241510
RWRUT

UTAH REGIONAL WEATHER ROUNDUP
NATIONAL WEATHER SERVICE SALT LAKE CITY UT
900 AM MDT SAT SEP 24 2016

UTZ001>011-023>025-241600-

NORTHERN UTAH

CITY           SKY/WX    TMP DP  RH WIND       PRES   REMARKS
BRIGHAM CITY     N/A     49  46  87 CALM      30.19R
HILL AFB       PTSUNNY   49  43  77 NW5       30.19R
LOGAN          CLOUDY    45  44  97 CALM      30.17R
OGDEN          CLOUDY    50  46  86 CALM      30.19R
PROVO AIRPORT  LGT RAIN  48  44  86 N6        30.21R
SALT LAKE CITY LGT RAIN  52  47  83 CALM      30.19R
VERNAL         LGT RAIN  45  42  89 SE6       30.11R
WENDOVER       SUNNY     54  36  50 NW20G26   30.21R
HEBER CITY     DRIZZLE   43  37  81 CALM      30.17R
WEST JORDAN    CLOUDY    48  45  88 CALM      30.21R

$$

UTZ012>022-026-027-241600-

SOUTHERN/CENTRAL UTAH

CITY           SKY/WX    TMP DP  RH WIND       PRES   REMARKS
BLANDING       CLOUDY    45  37  72 E5        30.27R
BRYCE CANYON   SUNNY     43  29  57 N3        30.26R
CEDAR CITY     SUNNY     43  36  76 NE3       30.23R
DELTA          CLOUDY    46  43  87 SW3       30.22S
MILFORD        PTSUNNY   41  37  86 S6        30.23R
MOAB/CYNLANDS  CLOUDY    53  42  66 N5        30.13R
PRICE          PTSUNNY   45  39  79 VRB3      30.16R
ST GEORGE      CLOUDY    55  36  47 CALM      30.17S

$$

REGIONAL REPORTS     COLORADO/ARIZONA

CITY           SKY/WX    TMP DP  RH WIND       PRES   REMARKS
CRAIG, CO      LGT RAIN  42  36  79 SW12      30.12R
GRAND JUNCTION LGT RAIN  48  43  82 SE3       30.16R
RIFLE          LGT RAIN  44  43  96 E5        30.16R
MONTROSE       CLOUDY    45  39  79 CALM      30.19R
CORTEZ         CLOUDY    47  39  74 CALM      30.20R
PAGE, AZ       SUNNY     56  36  47 CALM      30.16S
GRAND CANYON   SUNNY     44  35  70 CALM      30.26R
KINGMAN        SUNNY     57  32  38 CALM      30.16R
FLAGSTAFF      SUNNY     47  33  58 S5        30.25R

$$

REGIONAL REPORTS    NEVADA/IDAHO/WYOMING

CITY           SKY/WX    TMP DP  RH WIND       PRES   REMARKS
LAS VEGAS, NV  SUNNY     69  27  20 NW5       30.12R
ELY            SUNNY     47  34  60 NW7       30.31R
ELKO           SUNNY     53  35  50 NW10      30.30R
POCATELLO, ID  PTSUNNY   46  42  86 SW20      30.19R
BURLEY         SUNNY     48  41  76 W16G29    30.18R
EVANSTON, WY   CLOUDY    35  33  92 W14       30.18R WCI  26
ROCK SPRINGS   LGT RAIN  36  35  96 W18       30.09R WCI  26

$$




USA.gov is the U.S. government's official web portal to all federal, state and local government web resources and services.